This is the latest recevied weather packets stored in our database for station/object IT9CNT. If no packets are shown the sender has not sent any weather packets the latest 10 day(s).
| Time | Temp. | Humidity | Pressure | Rain* | Wind** | Luminosity | Snow |
|---|---|---|---|---|---|---|---|
| 1777379403 | 20.56° C | 61% | 1013.2 hPa | 0 mm | - | - | - |
| 1777379343 | 20.56° C | 60% | 1013.1 hPa | 0 mm | - | - | - |
| 1777379283 | 20° C | 58% | 1013.2 hPa | 0 mm | - | - | - |
| 1777379223 | 20° C | 57% | 1013.1 hPa | 0 mm | - | - | - |
| 1777379163 | 20° C | 60% | 1013.1 hPa | 0 mm | - | - | - |
| 1777379103 | 20.56° C | 58% | 1013.1 hPa | 0 mm | - | - | - |
| 1777379043 | 20.56° C | 57% | 1013.1 hPa | 0 mm | - | - | - |
| 1777378983 | 21.11° C | 58% | 1013.1 hPa | 0 mm | - | - | - |
| 1777378923 | 21.11° C | 57% | 1013.2 hPa | 0 mm | - | - | - |
| 1777378863 | 20.56° C | 55% | 1013 hPa | 0 mm | - | - | - |
| 1777378803 | 20.56° C | 53% | 1013.1 hPa | 0 mm | - | - | - |
| 1777378743 | 20.56° C | 58% | 1012.9 hPa | 0 mm | - | - | - |
| 1777378683 | 20.56° C | 59% | 1013.2 hPa | 0 mm | - | - | - |
| 1777378623 | 20.56° C | 59% | 1013 hPa | 0 mm | - | - | - |
| 1777378563 | 20.56° C | 59% | 1013.1 hPa | 0 mm | - | - | - |
| 1777378503 | 20.56° C | 59% | 1013 hPa | 0 mm | - | - | - |
| 1777378444 | 20.56° C | 60% | 1013.1 hPa | 0 mm | - | - | - |
| 1777378384 | 21.11° C | 59% | 1013.4 hPa | 0 mm | - | - | - |
| 1777378324 | 20.56° C | 56% | 1013.1 hPa | 0 mm | - | - | - |
| 1777378264 | 20.56° C | 56% | 1013 hPa | 0 mm | - | - | - |
| 1777378204 | 20.56° C | 54% | 1013 hPa | 0 mm | - | - | - |
| 1777378144 | 20.56° C | 56% | 1013.2 hPa | 0 mm | - | - | - |
| 1777378084 | 20.56° C | 56% | 1013.3 hPa | 0 mm | - | - | - |
| 1777378024 | 21.11° C | 55% | 1013.2 hPa | 0 mm | - | - | - |
| 1777377964 | 20.56° C | 56% | 1013.1 hPa | 0 mm | - | - | - |
* Rain latest hour (hover to see other rain measurements)
** Current wind speed in m/s (hover to see current wind gust speed)